CAPE
1231 1475 1426 1786 1674 1792 1712 1483 1555 1613 1744 1832 1888 1841 1630 1428 1544 1638 1706 1739 1786 1790 996 416 388 352 332 516 637 431 651 382 337 415 533 509 614 212 81 64 74 12 44
1302 1491 1707 1815 1703 1770 1701 1583 1495 1458 1509 1646 1721 1658 1569 1595 1667 1630 1619 1648 1584 858 424 104 201 197 237 326 525 623 453 464 557 428 419 501 627 336 15 0 0 1 19
1343 1471 1245 1850 1766 1786 1601 1486 1398 1348 1407 1474 1538 1538 1564 1595 1614 1582 1567 1469 1149 587 172 79 176 281 307 274 383 571 650 785 981 285 257 217 408 355 27 28 79 31 6
1388 1387 1346 1850 1756 1661 1515 1360 1316 1328 1314 1321 1399 1482 1552 1575 1526 1383 1492 1369 828 394 70 185 374 475 345 258 250 413 601 629 836 448 54 16 102 167 140 61 49 134 58
1391 1398 1382 1851 1750 1648 1470 1338 1241 1276 1261 1299 1361 1392 1348 1422 1393 1387 1426 1320 628 197 77 215 451 697 677 506 682 869 922 730 475 423 268 170 67 319 296 393 160 80 94
1240 1330 1801 1818 1717 1669 1406 1421 1242 1235 1330 1378 1352 1346 1306 1262 1322 1304 1291 1037 704 149 116 291 713 900 916 862 863 720 394 120 1 0 0 0 170 391 557 658 613 265 172
1117 1304 1693 1818 1716 1717 1577 1483 1316 1213 1272 1401 1470 1448 1456 1461 1366 1279 1153 816 600 466 287 381 711 981 969 891 712 396 111 17 0 0 0 29 62 400 973 863 880 629 400
1064 1420 1489 1694 1680 1637 1655 1523 1329 1163 1167 1302 1448 1499 1503 1452 1357 1300 1155 878 699 625 615 702 964 1079 943 761 555 287 118 63 0 0 0 122 166 673 944 1275 1151 842 590
1174 1245 1235 1355 1474 1606 1607 1499 1345 1229 1189 1244 1236 1278 1334 1301 1244 1214 1098 988 821 688 657 730 896 950 799 648 431 249 112 36 0 0 0 17 516 802 1046 1838 1262 894 757
1165 1086 1111 1145 1268 1170 1248 1639 1489 1378 1345 1338 1332 1294 1265 1199 1201 1221 933 948 924 687 589 589 596 479 342 266 200 135 121 78 0 0 0 0 41 794 1249 2136 1622 1357 1262
932 843 990 1012 1063 977 932 1299 1585 1506 1525 1482 1477 1405 1069 762 772 779 824 661 1080 940 641 499 392 254 194 174 182 203 161 9 0 0 0 0 86 759 1623 2237 2082 1851 1727
840 743 863 992 1074 918 977 931 1026 1084 1238 1181 1085 1058 736 547 444 627 725 987 798 1111 922 604 486 399 352 70 3 15 33 52 22 7 0 6 125 453 1868 2463 2599 2270 2248
667 651 807 883 1081 1106 1157 1079 1079 1055 1181 1005 895 798 713 529 534 755 445 580 697 682 628 358 311 250 186 76 55 13 0 0 5 12 10 202 398 331 907 2634 2991 2697 2566
713 585 664 778 981 972 1040 1302 1041 976 1102 872 1047 822 682 482 359 436 427 349 335 361 371 280 155 118 99 79 45 27 6 0 0 0 1 347 544 724 1369 2501 3180 3063 2721
908 735 565 727 894 921 1060 1210 933 927 1034 918 905 941 807 512 390 379 401 369 286 238 267 208 121 86 64 31 6 8 1 0 0 0 15 255 770 979 1371 2824 3177 3252 2779
906 952 640 662 790 896 952 1095 1025 896 1081 926 1009 896 732 541 422 337 404 397 319 250 263 238 150 39 26 4 4 1 0 0 0 0 13 177 631 1175 1755 2096 2949 3208 2985
14 666 707 565 604 768 749 866 823 900 946 1050 860 802 820 783 520 489 389 406 425 282 258 187 156 59 7 2 0 0 0 0 0 2 35 207 380 649 1732 2111 2399 2798 3041
0 0 201 521 321 454 384 669 575 499 463 660 737 813 941 1014 922 656 612 587 519 320 209 168 176 110 8 1 2 1 2 1 13 86 170 330 519 593 903 2089 2133 2499 3130
0 23 69 221 211 241 195 292 583 452 335 366 411 406 461 793 1131 1103 856 756 456 285 178 211 181 163 239 6 0 0 0 0 30 50 234 448 568 678 700 814 1649 2089 2340
0 79 156 188 191 162 83 182 420 946 1230 816 424 306 331 320 456 695 856 691 420 303 245 200 188 120 131 159 4 48 7 11 17 40 99 256 529 776 879 1072 1141 1704 1934
68 179 286 323 232 73 36 72 119 227 579 899 1125 1043 1030 705 390 285 342 475 425 540 501 358 398 266 156 4 99 258 119 42 67 116 166 211 278 439 1028 1097 1122 1093 1486
117 228 208 338 139 281 85 0 0 80 48 113 75 111 0 0 122 546 537 444 443 523 489 496 362 461 403 54 276 149 272 185 182 97 117 265 320 437 442 766 1141 1212 1207
5 52 48 100 86 39 0 0 0 0 0 0 0 0 0 0 0 55 53 250 419 352 567 696 583 459 758 186 190 384 121 152 100 153 98 5 26 85 164 595 1255 1307 1312
0 0 0 0 0 0 0 0 0 0 0 0 0 0 0 0 0 0 0 0 3 216 428 508 779 757 592 680 201 234 240 154 51 0 109 93 25 1 14 44 774 870 1100
0 0 0 0 0 0 0 0 0 0 0 0 0 0 0 0 0 0 0 0 0 0 0 323 539 724 595 647 570 1 16 0 0 0 0 0 0 0 0 0 41 517 716
0 0 0 0 0 0 0 0 0 0 0 0 0 0 0 0 0 0 0 0 0 0 0 0 0 72 160 233 238 0 0 2 0 0 2 0 0 5 0 0 5 258 485
CIN
-372 -269 -225 -129 -104 -82 -93 -127 -117 -106 -91 -83 -71 -55 -47 -43 -21 -6 -1 -0 -0 -1 -48 -131 -123 -120 -101 -58 -35 -46 -19 -32 -30 -13 -8 -9 -4 -43 -98 -112 -80 -41 -41
-424 -291 -209 -159 -139 -116 -116 -134 -143 -141 -130 -96 -71 -46 -33 -16 -5 -0 -1 -2 -6 -61 -133 -240 -193 -185 -163 -124 -57 -27 -36 -33 -19 -24 -24 -18 -7 -36 -110 -0 -0 -5 -99
-414 -309 -299 -173 -170 -146 -169 -183 -185 -168 -161 -120 -90 -50 -26 -9 -1 -2 -6 -13 -43 -120 -236 -275 -202 -151 -127 -125 -85 -30 -25 -17 -3 -71 -80 -84 -42 -37 -101 -91 -53 -69 -11
-401 -346 -289 -173 -175 -175 -209 -225 -207 -186 -179 -155 -115 -68 -36 -19 -16 -23 -19 -32 -93 -191 -320 -225 -152 -108 -125 -137 -133 -83 -43 -40 -19 -73 -184 -171 -133 -91 -89 -95 -87 -44 -73
-389 -349 -280 -168 -182 -176 -231 -245 -241 -224 -202 -167 -125 -92 -78 -46 -35 -29 -27 -39 -126 -237 -289 -219 -145 -84 -83 -121 -79 -46 -38 -63 -102 -114 -163 -186 -238 -111 -92 -53 -87 -104 -82
-414 -371 -240 -187 -189 -182 -222 -215 -232 -223 -194 -160 -144 -115 -95 -83 -51 -39 -39 -70 -125 -283 -276 -200 -100 -69 -66 -74 -75 -101 -161 -249 -8 -0 -0 -0 -237 -154 -89 -48 -36 -101 -110
-427 -347 -256 -222 -219 -200 -211 -220 -236 -239 -207 -154 -115 -96 -73 -63 -57 -57 -69 -131 -171 -192 -234 -205 -141 -90 -86 -101 -128 -187 -284 -381 -0 -0 -0 -367 -401 -217 -65 -64 -33 -71 -96
-429 -309 -269 -217 -228 -223 -206 -226 -242 -253 -226 -171 -117 -91 -82 -78 -88 -91 -107 -143 -172 -189 -194 -183 -145 -132 -141 -154 -178 -256 -349 -403 -0 -0 -0 -395 -436 -215 -118 -43 -32 -54 -89
-372 -332 -302 -258 -226 -201 -198 -210 -215 -202 -179 -147 -135 -118 -95 -94 -95 -90 -99 -118 -159 -195 -206 -202 -181 -166 -174 -186 -229 -305 -386 -463 -0 -0 -0 -551 -323 -234 -162 -27 -70 -103 -103
-348 -365 -342 -312 -283 -291 -252 -163 -164 -158 -142 -117 -96 -90 -82 -81 -78 -82 -128 -126 -125 -171 -195 -186 -184 -202 -230 -275 -333 -394 -443 -493 -40 -0 -0 -0 -607 -250 -164 -35 -87 -99 -90
-370 -397 -351 -347 -320 -320 -315 -223 -150 -138 -109 -93 -73 -72 -112 -162 -141 -130 -129 -176 -114 -126 -168 -195 -233 -294 -352 -388 -396 -389 -406 -771 -279 -0 -0 -0 -539 -269 -111 -60 -60 -81 -75
-390 -423 -393 -367 -339 -340 -291 -270 -230 -200 -158 -163 -163 -144 -211 -260 -285 -217 -166 -83 -125 -65 -98 -164 -178 -229 -314 -583 -785 -636 -715 -656 -755 -832 -0 -304 -504 -332 -61 -7 -7 -32 -19
-396 -396 -385 -371 -327 -296 -260 -251 -225 -210 -167 -181 -194 -204 -219 -261 -267 -204 -279 -245 -219 -223 -196 -300 -326 -358 -425 -568 -646 -809 -0 -0 -855 -770 -703 -518 -430 -404 -236 -43 -7 -5 -30
-365 -414 -406 -371 -330 -326 -297 -222 -249 -259 -213 -222 -176 -200 -222 -263 -307 -272 -274 -319 -344 -331 -324 -348 -458 -486 -523 -553 -595 -685 -840 -0 -0 -0 -397 -450 -418 -350 -228 -77 -19 -31 -33
-304 -364 -424 -371 -338 -341 -321 -271 -294 -280 -233 -237 -219 -197 -211 -264 -303 -288 -277 -287 -349 -376 -382 -453 -524 -545 -566 -616 -638 -663 -225 -0 -0 -0 -723 -490 -341 -327 -255 -86 -41 -3 -22
-316 -332 -395 -411 -376 -335 -327 -311 -294 -293 -242 -252 -214 -216 -241 -265 -296 -328 -295 -301 -345 -394 -390 -395 -460 -600 -649 -720 -763 -273 -0 -0 -0 -0 -681 -561 -369 -292 -224 -169 -67 -46 -41
-35 -433 -447 -473 -443 -386 -356 -337 -335 -290 -235 -205 -233 -222 -198 -202 -257 -241 -295 -314 -322 -379 -401 -466 -513 -583 -700 -740 -0 -0 -0 -0 -0 -714 -685 -529 -425 -364 -219 -186 -116 -84 -57
-0 -0 -544 -424 -499 -466 -476 -391 -378 -358 -359 -294 -265 -240 -174 -136 -146 -189 -230 -242 -264 -369 -436 -432 -440 -493 -622 -215 -617 -521 -739 -555 -618 -607 -556 -440 -363 -342 -294 -179 -160 -115 -55
-0 -503 -508 -468 -501 -496 -540 -476 -359 -365 -389 -390 -359 -341 -306 -213 -150 -123 -159 -194 -294 -355 -432 -398 -427 -457 -389 -381 -0 -239 -0 -0 -577 -485 -454 -388 -329 -285 -320 -289 -203 -169 -127
-0 -550 -496 -493 -476 -483 -533 -470 -359 -242 -201 -274 -343 -389 -386 -351 -274 -186 -158 -211 -272 -312 -361 -409 -412 -483 -453 -410 -486 -437 -581 -571 -546 -524 -483 -390 -297 -271 -248 -229 -252 -213 -203
-572 -516 -484 -446 -492 -536 -544 -512 -479 -412 -291 -208 -155 -149 -139 -210 -285 -304 -288 -245 -250 -209 -222 -303 -280 -320 -400 -542 -385 -351 -402 -519 -512 -410 -340 -323 -245 -261 -229 -202 -247 -251 -189
-526 -524 -562 -500 -582 -471 -500 -0 -0 -345 -352 -453 -328 -403 -0 -0 -331 -203 -220 -244 -230 -184 -204 -226 -270 -220 -245 -433 -214 -285 -208 -327 -375 -413 -389 -308 -273 -193 -189 -121 -162 -208 -245
-132 -641 -666 -626 -641 -290 -0 -0 -0 -0 -0 -0 -0 -0 -0 -0 -0 -151 -149 -262 -201 -184 -114 -99 -131 -164 -86 -254 -257 -143 -204 -223 -399 -399 -393 -439 -440 -340 -232 -125 -93 -127 -227
-0 -0 -0 -0 -0 -0 -0 -0 -0 -0 -0 -0 -0 -0 -0 -0 -0 -0 -0 -0 -38 -127 -67 -72 -43 -55 -73 -68 -143 -206 -194 -200 -205 -16 -322 -327 -322 -210 -453 -311 -87 -131 -141
-0 -0 -0 -0 -0 -0 -0 -0 -0 -0 -0 -0 -0 -0 -0 -0 -0 -0 -0 -0 -0 -0 -0 -37 -22 -14 -31 -28 -43 -0 -81 -0 -0 -0 -0 -0 -0 -0 -0 -0 -320 -127 -190
-0 -0 -0 -0 -0 -0 -0 -0 -0 -0 -0 -0 -0 -0 -0 -0 -0 -0 -0 -0 -0 -0 -0 -0 -0 -39 -20 -10 -27 -0 -0 -12 -0 -0 -0 -0 -0 -49 -0 -0 -248 -154 -189
Wind_Speed
5 10 18 15 16 17 16 15 14 17 16 17 17 18 18 17 17 15 14 13 12 12 12 11 11 11 12 12 12 12 11 11 11 10 9 8 10 9 9 8 8 6 8
13 10 17 15 16 18 18 18 15 14 16 17 17 17 17 16 15 14 13 12 12 12 11 11 12 12 13 13 12 12 11 10 9 9 7 5 10 9 9 9 9 7 9
14 12 13 14 16 17 19 19 18 15 15 15 16 16 16 15 14 13 12 12 12 12 12 12 12 12 12 12 12 11 10 9 8 8 8 3 4 7 8 8 8 7 8
13 12 10 15 15 16 18 18 18 17 16 16 16 16 15 14 14 13 12 12 12 12 12 12 12 11 11 11 10 10 8 8 7 8 4 5 5 7 8 8 7 7 7
12 11 11 15 15 14 18 18 17 17 17 16 16 15 14 13 13 11 10 10 11 11 11 11 11 10 10 10 9 8 7 6 5 5 4 4 3 7 8 8 7 7 7
12 11 15 16 16 15 17 17 17 16 17 16 16 15 14 13 11 10 9 9 9 10 10 10 9 8 9 9 8 7 6 5 4 3 3 5 6 6 9 9 8 8 8
10 9 11 17 17 17 18 18 18 17 16 16 15 15 14 14 11 10 10 9 9 9 10 11 10 8 8 8 8 7 5 5 3 3 4 4 8 10 11 10 9 10 9
12 9 8 14 15 16 16 17 17 16 16 16 15 15 14 14 14 13 12 11 11 11 11 11 11 10 9 8 7 7 7 7 4 4 4 4 9 11 13 10 10 10 10
10 10 7 8 11 14 13 13 13 13 13 12 12 12 12 12 11 11 10 10 10 11 11 12 11 10 9 8 7 7 6 7 4 3 4 2 9 12 14 12 12 12 11
7 9 10 9 9 8 8 13 13 13 13 12 11 10 10 9 9 9 8 7 8 8 8 8 7 5 5 6 6 7 6 7 3 4 4 3 8 14 14 13 14 14 13
4 5 6 8 6 6 6 9 12 15 13 12 11 11 7 3 3 5 5 8 7 7 6 5 5 5 4 5 7 7 8 2 4 3 3 8 10 13 15 14 15 15 15
9 7 6 6 7 6 6 5 5 5 5 5 6 6 5 5 5 5 6 6 5 6 5 3 4 6 5 2 2 6 3 4 4 4 3 10 10 12 13 14 14 14 14
7 7 8 6 7 8 5 4 3 3 3 2 3 4 4 3 3 3 2 3 4 6 3 3 2 2 4 3 3 3 4 4 3 3 6 10 11 13 15 16 15 15 15
8 7 6 7 8 9 5 6 6 6 6 5 7 5 4 3 4 3 3 4 3 3 4 3 2 2 4 5 5 5 4 4 4 3 6 14 12 14 13 17 17 16 17
8 9 10 10 10 9 9 7 7 6 6 7 8 8 5 5 4 2 2 2 2 2 3 3 3 3 4 5 5 6 6 7 7 4 4 12 12 13 14 16 15 14 15
10 12 12 13 12 10 10 9 7 5 6 5 7 8 10 4 4 4 4 4 4 4 4 5 5 5 6 4 7 6 6 6 7 7 5 4 10 13 12 15 16 16 16
9 9 12 12 11 12 11 8 6 6 5 6 7 8 9 7 5 4 4 4 5 5 5 4 4 3 4 3 7 4 4 6 8 8 5 5 6 9 10 12 16 16 14
5 9 7 10 12 12 11 8 6 6 5 4 4 5 6 6 7 6 5 6 4 3 4 5 5 5 5 5 5 3 5 5 9 6 5 5 6 5 6 14 15 13 15
9 8 9 9 11 10 7 6 6 6 4 4 4 3 6 7 8 6 6 5 4 5 5 5 5 5 5 5 5 4 5 7 7 5 7 5 7 6 4 9 13 15 18
7 6 6 7 9 8 6 4 3 3 4 3 3 3 3 4 4 5 4 6 4 5 5 5 6 4 5 4 5 5 3 5 4 5 8 5 6 7 7 9 7 8 16
6 8 9 9 9 10 6 6 3 3 3 2 2 4 3 3 4 5 5 5 5 7 8 8 5 8 6 4 1 3 4 6 6 3 3 5 8 6 7 8 6 6 7
10 10 8 8 10 10 5 3 3 4 3 3 3 5 4 4 3 3 3 4 5 5 6 7 8 5 4 6 3 1 3 2 2 4 3 1 5 5 10 12 10 10 9
8 10 10 9 8 5 8 7 4 4 4 3 2 2 1 2 3 3 2 2 3 3 5 6 6 8 7 4 7 5 1 7 3 3 3 5 5 7 7 13 11 9 8
11 4 6 7 7 5 6 6 5 5 4 2 3 2 2 2 3 4 3 2 1 2 5 6 5 7 6 8 3 7 5 2 3 4 1 4 5 10 13 11 10 8 9
8 7 6 8 8 8 7 7 6 5 3 3 2 4 4 3 3 3 3 3 0 1 3 4 6 5 5 6 6 2 4 1 1 3 5 4 2 7 13 14 12 9 9
6 7 7 6 6 7 7 8 8 8 6 5 4 3 3 2 2 2 3 1 1 1 1 2 4 6 6 6 6 4 5 4 4 5 5 5 7 8 10 12 8 8 7
Wind_Direction
162 152 156 148 147 135 128 121 113 114 115 115 116 119 124 129 133 137 141 138 133 133 130 125 123 118 113 114 118 118 117 121 123 126 125 132 146 131 136 132 123 117 108
133 151 155 147 146 136 132 127 121 115 114 117 118 121 125 128 133 137 139 137 136 135 133 135 135 133 130 130 128 128 129 128 134 135 129 123 157 151 150 142 138 137 129
137 145 157 150 147 141 135 132 129 127 121 122 123 126 129 132 134 137 139 139 141 142 142 143 142 140 135 131 131 131 135 140 142 145 145 143 161 156 156 149 145 141 132
139 143 151 151 146 146 136 132 133 133 131 131 131 133 134 135 138 143 145 146 149 148 149 149 147 144 142 140 141 143 145 150 159 159 152 172 183 175 169 160 153 152 147
144 143 155 152 147 150 139 136 136 136 136 137 137 137 138 139 143 146 146 149 152 152 152 154 154 154 156 154 153 158 160 167 185 200 211 208 208 185 179 172 171 168 167
147 146 156 155 151 150 143 140 141 142 141 142 142 142 144 146 145 145 150 154 158 159 162 162 162 166 168 166 167 172 177 188 213 226 240 230 203 210 190 186 187 191 183
145 148 154 160 158 156 154 151 151 151 150 149 151 152 154 152 154 157 161 163 166 167 172 175 176 184 189 185 184 187 193 216 231 244 253 223 194 202 199 196 203 199 198
145 147 156 167 161 160 161 158 157 157 158 159 161 165 166 168 169 172 174 175 179 180 184 187 190 194 199 200 202 201 211 224 234 240 254 218 187 193 201 199 203 205 206
143 143 151 161 168 165 164 161 159 160 164 166 168 171 175 177 180 182 186 189 191 193 194 198 201 204 209 217 223 224 230 247 239 256 253 228 207 203 202 203 204 207 208
151 161 165 167 168 164 163 167 166 168 171 172 175 177 182 186 190 191 195 201 207 211 215 224 228 238 251 261 269 273 271 264 276 274 276 266 251 227 213 207 205 207 205
175 172 171 168 165 162 160 176 176 178 178 180 182 185 174 169 195 213 212 217 222 227 240 246 243 251 268 281 286 288 290 294 271 269 273 277 281 244 227 216 210 209 208
199 191 182 172 165 153 170 169 159 174 175 175 177 178 176 175 179 184 210 249 259 273 261 250 276 267 240 234 270 300 300 281 278 267 269 280 276 266 245 239 224 219 215
192 189 185 168 163 169 169 149 154 150 160 165 176 177 188 182 193 197 185 202 186 207 205 188 200 228 263 256 238 223 253 260 256 260 258 252 248 254 261 233 226 227 220
177 185 170 169 169 179 152 179 185 181 188 200 205 186 171 182 188 197 199 201 215 199 188 240 250 236 220 251 269 261 234 245 256 254 262 261 245 246 247 235 229 220 225
188 185 185 178 185 184 177 178 179 184 193 199 206 205 188 189 198 193 228 244 256 223 237 210 216 226 223 234 237 245 257 261 262 249 242 265 265 256 249 237 229 233 230
199 203 186 192 190 185 193 183 180 180 185 176 206 214 211 183 180 193 199 209 212 202 203 227 230 219 241 227 249 235 255 264 265 262 260 262 260 257 246 240 235 228 228
206 197 192 188 182 186 194 178 169 174 175 195 205 208 212 206 189 203 218 221 224 213 219 225 225 233 250 245 253 230 239 256 264 267 268 261 279 274 244 240 240 237 232
195 187 175 183 185 185 186 175 163 170 170 170 183 183 190 198 195 203 215 227 227 194 203 227 225 234 240 236 255 224 236 242 254 248 259 266 267 267 255 240 241 244 240
214 169 175 177 186 185 160 153 154 169 176 188 182 188 203 197 200 210 223 226 196 208 215 218 237 218 248 241 244 239 244 255 266 269 259 249 248 258 251 257 243 239 239
206 183 165 167 160 154 134 129 129 158 188 162 185 198 220 217 224 215 230 228 193 208 223 219 224 202 231 248 256 273 253 243 247 241 258 251 251 246 236 245 243 249 240
191 173 175 169 164 153 158 157 158 170 108 85 150 154 155 194 198 209 227 242 229 233 242 226 226 229 230 182 122 253 244 229 235 283 309 283 283 263 235 245 237 241 250
193 188 180 185 173 177 152 103 126 130 110 135 110 100 87 92 114 164 215 236 220 234 232 221 206 231 244 176 178 193 271 341 162 167 167 302 290 305 302 281 250 239 241
204 193 184 186 177 159 124 115 84 66 74 101 105 110 56 127 128 107 71 296 278 240 254 256 230 222 237 202 211 164 203 228 152 196 211 232 274 305 296 299 268 255 227
222 168 158 141 131 120 125 118 127 141 147 158 127 148 200 111 95 90 91 82 353 280 268 269 235 228 220 238 202 240 260 171 184 295 327 248 234 256 261 274 278 270 257
170 173 147 133 131 135 132 126 116 107 119 138 148 161 143 92 84 100 113 117 84 303 283 277 281 241 225 242 229 193 250 322 213 176 263 279 235 237 258 255 261 252 253
118 115 122 134 134 138 132 135 140 146 162 166 191 144 118 132 151 144 114 104 160 248 283 288 275 261 258 246 245 216 217 211 204 191 213 242 233 250 243 254 252 250 252